Hourly Data Report for December 31, 2005

TORONTO CITY
ONTARIO

43°40'00.000" N
79°24'00.000" W
112.50 m
6158355
71508
XTO

Download Data

Hourly Data (December 2005)
Hourly Data Report for December 31, 2005
TIME
LST
Temp Definition
°C
Dew Point Definition
°C
Rel Hum Definition
%
Precip. Amount Definition
mm

Wind Dir Definition
10's deg

Wind Spd Definition
km/h
Visibility Definition
km
Stn Press Definition
kPa
Hmdx Definition


Wind Chill Definition


Weather Definition


00:00 -3.0 -4.6 89   LegendMM LegendMM   99.78     LegendNANA
01:00 -1.5 -2.6 92   LegendMM LegendMM   99.69     LegendNANA
02:00 -2.1 -3.0 94   LegendMM LegendMM   99.63     LegendNANA
03:00 -3.5 -4.1 96   LegendMM LegendMM   99.54     LegendNANA
04:00 -3.9 -4.4 96   LegendMM LegendMM   99.50     LegendNANA
05:00 -3.8 -4.3 96   LegendMM LegendMM   99.47     LegendNANA
06:00 -3.2 -3.8 96   LegendMM LegendMM   99.39     LegendNANA
07:00 -4.2 -4.7 96   LegendMM LegendMM   99.35     LegendNANA
08:00 -5.7 -7.1 90   LegendMM LegendMM   99.28     LegendNANA
09:00 -4.9 -5.6 95   LegendMM LegendMM   99.31     LegendNANA
10:00 -4.3 -5.1 94   LegendMM LegendMM   99.26     LegendNANA
11:00 -4.7 -5.6 93   LegendMM LegendMM   99.20     LegendNANA
12:00 -4.5 -5.4 93   LegendMM LegendMM   99.13     LegendNANA
13:00 -3.7 -4.3 96   LegendMM LegendMM   99.07     LegendNANA
14:00 -4.1 -4.7 96   LegendMM LegendMM   99.06     LegendNANA
15:00 -4.0 -4.9 93   LegendMM LegendMM   99.10     LegendNANA
16:00 -4.2 -5.1 93   LegendMM LegendMM   99.16     LegendNANA
17:00 -4.5 -5.4 93   LegendMM LegendMM   99.21     LegendNANA
18:00 -4.2 -5.2 93   LegendMM LegendMM   99.28     LegendNANA
19:00 -4.5 -5.6 92   LegendMM LegendMM   99.34     LegendNANA
20:00 -4.8 -6.0 91   LegendMM LegendMM   99.40     LegendNANA
21:00 -4.8 -6.3 89   LegendMM LegendMM   99.45     LegendNANA
22:00 -4.8 -6.4 89   LegendMM LegendMM   99.49     LegendNANA
23:00 -4.7 -6.4 88   LegendMM LegendMM   99.54     LegendNANA

Notes on Data Quality.

Legend

  • E = Estimated
  • M = Missing
  • NA = Not Available*
  • [empty] = Indicates an unobserved value
Date modified: